Location: Newark
(7.0858°N, 171.3717°E)
Time: 05:25:27
(UTC+00:00)

Courier 1B Rocket - Pass Details

Date: 03 December 2020
Orbit: 920 x 1202 km, 28.2° (Epoch: 20 January)

Event Time Altitude Azimuth Distance (km) Brightness Sun altitude
Rises 02:28:11 0° 259° (W) 3,787 8.6 47.9°
Reaches altitude 10° 02:33:17 10° 228° (SW) 2,757 8.4 47.0°
Maximum altitude 02:35:19 11° 210° (SSW) 2,623 8.2 46.6°
Drops below altitude 10° 02:37:21 10° 191° (S) 2,702 8.1 46.2°
Sets 02:42:12 0° 159° (SSE) 3,594 8.2 45.3°
